FW3988 Weather Reports


time (UTC)temp
C
wind
direction
speed
KPH
gust
KPH
rain 1hr
cm
rain 24hr
cm
rain mn
cm
humidity
%
barometer
mb
20260831124527 27 50 0.0 3.2 0.00 0.00 0.00 80 1012.6
20260831123023 27 49 0.0 3.2 0.00 0.00 0.00 79 1012.3
20260831121600 27 50 0.0 3.2 0.00 0.00 0.00 79 1012.3
20260831121504 27 50 0.0 3.2 0.00 0.00 0.00 79 1012.3
20260831120146 27 50 0.0 4.8 0.00 0.00 0.00 78 1012.3
20260831114526 27 56 1.6 4.8 0.00 2.11 0.00 77 1012.1
20260831113019 27 26 3.2 8.0 0.00 2.11 0.00 76 1011.7
20260831111516 27 18 0.0 4.8 0.00 2.11 0.00 75 1011.4
20260831110154 28 53 0.0 3.2 0.00 2.11 0.00 76 1011.3
20260831104533 28 53 0.0 1.6 0.00 2.11 0.00 74 1011.2
20260831103034 28 53 0.0 3.2 0.00 2.11 0.00 74 1011.1
20260831101559 27 53 0.0 3.2 0.00 2.11 0.00 75 1011.2
20260831100144 27 53 0.0 6.4 0.00 2.11 0.00 76 1011.2
20260831094531 27 33 1.6 6.4 0.00 2.11 0.00 76 1011.2
20260831093015 27 19 1.6 6.4 0.00 2.11 0.00 75 1011.2
20260831091613 28 19 3.2 8.0 0.00 2.11 0.00 74 1011.2
20260831090152 28 346 3.2 6.4 0.00 2.11 0.00 74 1011.3
20260831084530 28 23 1.6 6.4 0.00 2.11 0.00 75 1011.3
20260831083023 28 24 3.2 6.4 0.00 2.11 0.00 74 1011.5
20260831081606 28 24 0.0 1.6 0.00 2.11 0.00 75 1011.6
20260831080140 28 23 1.6 4.8 0.00 2.11 0.00 75 1011.7
20260831074540 28 11 0.0 6.4 0.00 2.11 0.00 74 1011.7
20260831073030 29 360 3.2 8.0 0.00 2.11 0.00 73 1012.0
20260831071603 29 18 0.0 3.2 0.00 2.11 0.00 72 1012.0
20260831070149 29 17 1.6 4.8 0.00 2.11 0.00 72 1012.1
20260831064542 29 15 1.6 3.2 0.00 2.11 2.11 72 1012.0
20260831061601 29 13 0.0 4.8 0.00 2.11 2.11 72 1011.9
20260831060144 29 11 0.0 3.2 0.00 2.11 2.11 72 1011.9
20260831054528 29 12 1.6 6.4 0.00 2.11 2.11 72 1011.9
20260831053014 29 13 4.8 12.9 0.00 2.11 2.11 73 1011.8
20260831051555 30 41 4.8 9.7 0.00 2.11 2.11 72 1011.8
20260831050144 30 5 4.8 9.7 0.00 2.11 2.11 73 1011.9
20260831044531 31 309 3.2 8.0 0.00 2.11 2.11 75 1012.1
20260831043020 31 302 4.8 12.9 0.00 2.11 2.11 75 1012.2
20260831041513 31 291 4.8 11.3 0.00 2.11 2.11 74 1012.0
20260831040156 31 320 3.2 11.3 0.00 2.11 2.11 76 1011.8
20260831034526 31 287 6.4 14.5 0.00 2.11 2.11 77 1011.6
20260831033011 31 292 6.4 11.3 0.00 2.11 2.11 77 1011.2
20260831031605 31 302 6.4 9.7 0.00 2.11 2.11 76 1011.1
20260831030143 31 331 4.8 14.5 0.00 2.11 2.11 77 1011.1
20260831024526 31 267 4.8 11.3 0.00 2.13 2.11 76 1010.7
20260831023020 31 300 4.8 11.3 0.00 2.13 2.11 77 1010.6
20260831021502 31 298 3.2 11.3 0.00 2.13 2.11 77 1010.3
20260831020037 31 288 1.6 12.9 0.00 2.13 2.11 77 1010.1
20260831014513 31 297 3.2 12.9 0.00 2.34 2.11 76 1009.9
20260831013057 31 277 4.8 12.9 0.00 2.34 2.11 75 1009.7
20260831011554 31 287 3.2 14.5 0.00 2.34 2.11 75 1009.7
20260831010031 31 295 8.0 14.5 0.00 2.34 2.11 75 1009.7
20260831004556 31 279 6.4 16.1 0.00 2.39 2.11 75 1009.3
20260831003050 32 259 9.7 16.1 0.00 2.39 2.11 72 1009.4
20260831001538 32 255 4.8 12.9 0.00 2.39 2.11 72 1009.3
20260831000133 32 242 6.4 17.7 0.00 2.39 2.11 71 1009.0
20260830234519 32 251 6.4 16.1 0.00 2.41 2.11 72 1009.6
20260830233054 32 257 6.4 12.9 0.00 2.41 2.11 72 1009.7
20260830231536 32 236 6.4 11.3 0.00 2.41 2.11 73 1009.6
20260830230136 32 227 6.4 17.7 0.00 2.41 2.11 74 1009.2
20260830224528 32 233 8.0 19.3 0.00 2.41 2.11 72 1009.5
20260830223029 32 261 9.7 14.5 0.00 2.41 2.11 68 1009.7
20260830221532 32 262 4.8 14.5 0.00 2.41 2.11 70 1009.7
20260830220127 32 248 6.4 14.5 0.00 2.41 2.11 69 1009.7
20260830214513 32 235 8.0 16.1 0.00 2.41 2.11 71 1009.7
20260830213101 32 241 6.4 14.5 0.00 2.41 2.11 69 1009.8
20260830211547 32 217 4.8 14.5 0.00 2.41 2.11 68 1009.9
20260830210135 32 229 8.0 16.1 0.00 2.41 2.11 67 1009.9
20260830204504 32 257 9.7 19.3 0.00 2.41 2.11 69 1010.1
20260830203055 32 226 11.3 19.3 0.00 2.41 2.11 69 1010.2
20260830201552 33 225 8.0 19.3 0.00 2.41 2.11 67 1010.4
20260830200123 33 267 3.2 9.7 0.00 2.41 2.11 62 1010.5
20260830194506 33 243 3.2 8.0 0.00 2.41 2.11 63 1010.9
20260830193106 32 294 4.8 9.7 0.00 2.41 2.11 62 1011.2
20260830191540 32 273 0.0 8.0 0.00 2.41 2.11 66 1011.6
20260830190131 32 288 1.6 9.7 0.00 2.41 2.11 63 1012.0
20260830184519 32 235 4.8 9.7 0.00 2.41 2.11 68 1012.4
20260830183004 32 276 3.2 8.0 0.00 2.41 2.11 68 1012.6
20260830181555 31 225 4.8 9.7 0.00 2.41 2.11 68 1012.9
20260830180141 31 225 1.6 9.7 0.00 2.41 2.11 68 1013.1
20260830174510 30 217 6.4 11.3 0.00 2.41 2.11 71 1013.3
20260830173106 30 214 1.6 12.9 0.00 2.41 2.11 70 1013.4
20260830171542 30 232 6.4 11.3 0.00 2.41 2.11 69 1013.5
20260830170005 31 229 6.4 12.9 0.00 2.41 2.11 67 1013.6
20260830164547 31 229 1.6 9.7 0.00 2.41 2.11 66 1013.9
20260830163012 30 227 1.6 9.7 0.00 2.41 2.11 67 1013.7
20260830161554 30 223 1.6 4.8 0.00 2.41 2.11 68 1013.6
20260830160138 30 217 0.0 3.2 0.00 2.41 2.11 72 1013.5
20260830154505 29 253 0.0 3.2 0.00 2.41 2.11 72 1013.6
20260830153104 28 5 0.0 3.2 0.00 2.41 2.11 76 1013.5
20260830151534 27 5 1.6 4.8 0.00 2.41 2.11 79 1013.4
20260830150125 26 5 0.0 6.4 0.00 2.41 2.11 82 1013.5
20260830144531 26 40 3.2 8.0 0.00 2.41 2.11 85 1013.4
20260830143003 25 27 1.6 6.4 0.00 2.41 2.11 87 1013.9
20260830141551 25 24 3.2 9.7 0.00 2.41 2.11 87 1013.8
20260830140015 25 57 4.8 9.7 0.00 2.41 2.11 87 1013.8
20260830134605 24 54 3.2 11.3 0.00 2.41 2.11 89 1013.9
20260830133049 24 46 4.8 16.1 0.00 2.41 2.11 89 1013.5
20260830131536 24 65 4.8 12.9 0.00 2.41 2.11 89 1013.4
20260830130128 24 51 8.0 19.3 0.00 2.41 2.11 87 1013.5